Lid_Strength_Index
2 2 2 2 2 3 3 3 4 5 5 6 7 8 8 9 9 11 11 12 12 13
3 2 3 2 2 2 2 3 4 5 5 6 8 8 9 9 9 10 11 11 12 12
4 3 2 2 2 2 2 3 4 5 5 6 7 8 9 9 9 10 11 12 12 14
5 4 3 3 2 2 2 3 4 5 5 6 8 8 9 9 10 10 12 13 13 14
6 5 4 4 3 3 3 3 4 4 6 7 7 8 9 10 10 11 11 12 13 13
7 6 5 5 4 4 4 4 5 5 6 7 7 9 8 10 10 11 11 11 11 12
10 6 6 5 5 6 5 5 6 6 6 6 7 8 8 10 10 10 11 10 10 11
10 9 6 7 8 7 7 6 6 7 7 6 7 8 8 9 10 10 11 11 10 10
11 10 9 9 10 9 8 8 9 10 9 8 8 10 8 8 9 10 11 11 11 11
11 11 9 9 10 10 9 10 10 10 10 9 9 8 8 9 9 10 11 10 11 12
10 10 10 9 10 10 10 10 10 11 11 10 9 8 9 10 9 11 10 11 11 11
10 11 11 10 9 9 10 11 11 11 11 11 11 9 8 9 10 11 11 11 11 11
11 12 11 11 10 10 11 11 11 11 11 10 10 9 8 9 10 11 11 11 11 11
11 11 10 11 11 11 11 11 12 12 11 10 10 10 9 9 11 10 11 12 12 12